DW2849 Weather Reports


Display with metric or nautical units.
time (UTC)temp
F
wind
direction
speed
MPH
gust
MPH
rain 1hr
in
rain 24hr
in
rain mn
in
humidity
%
barometer
mb
20260901233602 63 208 3.0 6.0 0.00 0.00 0.00 73 1015.3
20260901232501 63 190 4.0 6.0 0.00 0.00 0.00 72 1015.4
20260901231210 63 215 3.0 7.0 0.00 0.00 0.00 73 1015.4
20260901230110 64 212 4.0 6.0 0.00 0.00 0.00 71 1015.4
20260901225010 64 186 3.0 4.0 0.00 0.00 0.00 71 1015.5
20260901223911 63 235 3.0 9.0 0.00 0.00 0.00 73 1015.5
20260901222810 63 264 2.0 6.0 0.00 0.00 0.00 74 1015.6
20260901221710 64 215 3.0 5.0 0.00 0.00 0.00 73 1015.7
20260901220610 64 199 3.0 6.0 0.00 0.00 0.00 72 1015.7
20260901215318 0 205 2.0 4.0 0.00 0.00 0.00 1015.7
20260901214219 65 222 4.0 8.0 0.00 0.00 0.00 71 1015.8
20260901213119 64 231 3.0 10.0 0.00 0.00 0.00 74 1015.7
20260901212019 64 245 4.0 8.0 0.00 0.00 0.00 71 1015.7
20260901210919 67 275 3.0 10.0 0.00 0.00 0.00 67 1015.6
20260901205819 67 218 4.0 11.0 0.00 0.00 0.00 67 1015.5
20260901204528 63 220 3.0 6.0 0.00 0.00 0.00 71 1015.5
20260901203427 62 183 2.0 9.0 0.00 0.00 0.00 72 1015.6
20260901202327 61 215 3.0 6.0 0.00 0.00 0.00 74 1015.7
20260901201036 62 225 3.0 4.0 0.00 0.00 0.00 75 1015.9
20260901195936 62 221 3.0 6.0 0.00 0.00 0.00 75 1016.0
20260901194836 61 206 3.0 4.0 0.00 0.00 0.00 77 1016.0
20260901193736 61 200 2.0 5.0 0.00 0.00 0.00 77 1016.0
20260901192636 62 211 3.0 5.0 0.00 0.00 0.00 75 1015.9
20260901191536 64 165 3.0 8.0 0.00 0.00 0.00 73 1015.9
20260901190245 63 341 3.0 8.0 0.00 0.00 0.00 75 1015.9
20260901185145 60 231 2.0 5.0 0.00 0.00 0.00 79 1016.0
20260901183854 60 183 2.0 5.0 0.00 0.00 0.00 78 1015.9
20260901182754 60 236 3.0 5.0 0.00 0.00 0.00 79 1016.0
20260901181654 60 273 2.0 4.0 0.00 0.00 0.00 80 1015.9
20260901180554 60 232 1.0 9.0 0.00 0.00 0.00 80 1015.8
20260901175454 59 308 2.0 3.0 0.00 0.00 0.00 81 1015.8
20260901174354 59 180 1.0 2.0 0.00 0.00 0.00 82 1015.7
20260901173102 59 222 2.0 2.0 0.00 0.00 0.00 83 1015.6
20260901172003 58 197 1.0 2.0 0.00 0.00 0.00 83 1015.4
20260901170903 58 186 1.0 3.0 0.00 0.00 0.00 83 1015.3
20260901165803 58 225 1.0 2.0 0.00 0.00 0.00 83 1015.2
20260901164511 57 245 1.0 3.0 0.00 0.00 0.00 83 1015.2
20260901163411 58 236 1.0 4.0 0.00 0.00 0.00 82 1015.2
20260901162311 58 254 2.0 4.0 0.00 0.00 0.00 83 1015.1
20260901161211 57 251 1.0 5.0 0.00 0.00 0.00 83 1015.0
20260901160112 57 220 2.0 3.0 0.00 0.00 0.00 83 1015.0
20260901155011 57 244 3.0 6.0 0.00 0.00 0.00 83 1015.0
20260901153720 56 205 2.0 4.0 0.00 0.00 0.00 84 1014.9
20260901152620 56 232 1.0 3.0 0.00 0.00 0.00 84 1014.7
20260901151520 56 232 1.0 3.0 0.00 0.00 0.00 84 1014.6
20260901150422 56 298 1.0 4.0 0.00 0.00 0.00 83 1014.5
20260901145129 56 273 1.0 3.0 0.00 0.00 0.00 83 1014.4
20260901144029 55 245 1.0 2.0 0.00 0.00 0.00 84 1014.2
20260901142929 55 273 2.0 4.0 0.00 0.00 0.00 84 1014.0
20260901141829 55 231 1.0 3.0 0.00 0.00 0.00 84 1013.8
20260901140730 55 315 1.0 2.0 0.00 0.00 0.00 84 1013.7
20260901135629 56 259 2.0 6.0 0.00 0.00 0.00 84 1013.6
20260901134338 56 241 1.0 3.0 0.00 0.00 0.00 84 1013.4
20260901133237 56 265 2.0 5.0 0.00 0.00 0.00 83 1013.4
20260901132138 56 231 1.0 5.0 0.00 0.00 0.00 83 1013.2
20260901131041 56 225 1.0 2.0 0.00 0.00 0.00 83 1013.1
20260901125937 56 270 0.0 4.0 0.00 0.00 0.00 83 1013.0
20260901124837 56 214 2.0 4.0 0.00 0.00 0.00 83 1012.9
20260901123737 55 197 1.0 2.0 0.00 0.00 0.00 83 1013.0
20260901122638 55 180 1.0 3.0 0.00 0.00 0.00 83 1012.9
20260901121538 55 183 1.0 2.0 0.00 0.00 0.00 83 1012.7
20260901120246 55 248 2.0 4.0 0.00 0.00 0.00 83 1012.9
20260901114955 55 321 1.0 2.0 0.00 0.00 0.00 83 1012.9
20260901113855 55 298 1.0 2.0 0.00 0.00 0.00 83 1012.9
20260901112755 55 242 1.0 2.0 0.00 0.00 0.00 83 1012.8
20260901111655 56 267 2.0 3.0 0.00 0.00 0.00 83 1012.8
20260901110555 56 326 2.0 4.0 0.00 0.00 0.00 83 1012.9
20260901105455 56 295 2.0 4.0 0.00 0.00 0.00 83 1013.1
20260901104355 55 273 2.0 6.0 0.00 0.00 0.00 83 1013.2
20260901103104 55 242 2.0 4.0 0.00 0.00 0.00 83 1013.3
20260901102004 55 306 2.0 5.0 0.00 0.00 0.00 83 1013.1
20260901100904 54 264 2.0 4.0 0.00 0.00 0.00 83 1013.0
20260901095804 54 251 2.0 4.0 0.00 0.00 0.00 83 1013.0
20260901094704 53 231 1.0 3.0 0.00 0.00 0.00 83 1012.9
20260901093604 53 225 1.0 2.0 0.00 0.00 0.00 82 1012.9
20260901092503 53 230 1.0 2.0 0.00 0.00 0.00 83 1012.8
20260901091020 52 250 1.0 4.0 0.00 0.00 0.00 83 1012.8
20260901085920 52 270 1.0 3.0 0.00 0.00 0.00 83 1012.8
20260901084820 52 202 0.0 0.0 0.00 0.00 0.00 83 1012.9
20260901083720 52 180 0.0 0.0 0.00 0.00 0.00 83 1012.8
20260901082622 52 225 0.0 0.0 0.00 0.00 0.00 83 1012.7
20260901081329 52 90 0.0 0.0 0.00 0.00 0.00 83 1012.6
20260901080229 52 202 2.0 2.0 0.00 0.00 0.00 83 1012.5
20260901075129 53 112 0.0 3.0 0.00 0.00 0.00 82 1012.6
20260901074029 53 253 1.0 2.0 0.00 0.00 0.00 82 1012.6
20260901072929 53 278 1.0 3.0 0.00 0.00 0.00 82 1012.6
20260901071829 53 0 1.0 2.0 0.00 0.00 0.00 82 1012.6
20260901070728 53 194 1.0 5.0 0.00 0.00 0.00 82 1012.4
20260901065629 54 236 2.0 2.0 0.00 0.00 0.00 82 1012.5
20260901064529 54 20 0.0 2.0 0.00 0.00 0.00 82 1012.5
20260901063429 54 320 1.0 3.0 0.00 0.00 0.00 82 1012.5
20260901062137 54 283 1.0 3.0 0.00 0.00 0.00 82 1012.5
20260901061037 55 296 2.0 4.0 0.00 0.00 0.00 82 1012.5
20260901055937 55 248 1.0 3.0 0.00 0.00 0.00 82 1012.6
20260901054837 55 225 2.0 4.0 0.00 0.00 0.00 81 1012.7
20260901053737 56 256 2.0 3.0 0.00 0.00 0.00 81 1012.7
20260901052446 56 196 3.0 6.0 0.00 0.00 0.00 81 1012.7
20260901051155 56 229 3.0 6.0 0.00 0.00 0.00 81 1012.7
20260901050055 56 222 2.0 4.0 0.00 0.00 0.00 81 1012.7
20260901044955 56 230 4.0 6.0 0.00 0.00 0.00 80 1012.7
20260901043855 56 251 3.0 8.0 0.00 0.00 0.00 80 1012.6
20260901042755 57 232 4.0 6.0 0.00 0.00 0.00 80 1012.5
20260901041655 57 242 5.0 8.0 0.00 0.00 0.00 80 1012.4
20260901040555 57 242 3.0 9.0 0.00 0.00 0.00 80 1012.3
20260901035455 57 278 3.0 11.0 0.00 0.00 0.00 80 1012.2
20260901034355 57 248 4.0 10.0 0.00 0.00 0.00 80 1012.0
20260901033103 0 292 4.0 13.0 0.00 0.00 0.00 1011.9
20260901032003 57 212 4.0 8.0 0.00 0.00 0.00 80 1011.8
20260901030903 57 221 3.0 6.0 0.00 0.00 0.00 80 1011.8
20260901025612 57 235 4.0 11.0 0.00 0.00 0.00 80 1011.6
20260901024512 57 242 3.0 7.0 0.00 0.00 0.00 80 1011.7
20260901023221 57 248 3.0 9.0 0.00 0.00 0.00 80 1011.7
20260901022121 57 210 3.0 9.0 0.00 0.00 0.00 79 1011.7
20260901021021 58 236 4.0 9.0 0.00 0.00 0.00 79 1011.7
20260901015921 58 230 4.0 8.0 0.00 0.00 0.00 78 1011.7
20260901014822 58 267 4.0 11.0 0.00 0.00 0.00 78 1011.7
20260901013721 58 251 5.0 10.0 0.00 0.00 0.00 77 1011.6
20260901012621 59 242 4.0 10.0 0.00 0.00 0.00 77 1011.6
20260901011521 59 255 5.0 10.0 0.00 0.00 0.00 76 1011.6
20260901010421 59 274 5.0 12.0 0.00 0.00 0.00 75 1011.7
20260901005130 60 248 4.0 7.0 0.00 0.00 0.00 75 1011.7
20260901004030 60 233 4.0 9.0 0.00 0.00 0.00 74 1011.8
20260901002930 60 236 4.0 8.0 0.00 0.00 0.00 73 1011.9
20260901001830 60 274 5.0 17.0 0.00 0.00 0.00 73 1011.9
20260901000730 61 276 3.0 11.0 0.00 0.00 0.00 73 1011.8
20260831235439 61 260 4.0 10.0 0.00 0.00 0.00 73 1011.8